• In Netherlands
  • List of Countries
  • For 7 days
  • Water Temperature
  • Satellite Maps
  • Weather Map
  • Weather Widgets
  • user-avatar
    Login

    Hourly Weather Escaldes-Engordany

    Today, 19 January, Friday

    Time Temperature Precipitation Wind Pressure Humidity
    00:00 -1°C° 0 mm 2 mps 638 mmHg 76%
    01:00 -1°C° 0 mm 2 mps 638 mmHg 78%
    02:00 -1°C° 0 mm 2 mps 638 mmHg 81%
    03:00 -1°C° 0 mm 2 mps 638 mmHg 83%
    04:00 -1°C° 0 mm 2 mps 637 mmHg 83%
    05:00 -1°C° 0 mm 2 mps 637 mmHg 83%
    06:00 -1°C° 0 mm 2 mps 637 mmHg 84%
    07:00 +1°C° 0 mm 2 mps 638 mmHg 80%
    08:00 +1°C° 0 mm 2 mps 638 mmHg 76%
    09:00 +2°C° 0 mm 2 mps 638 mmHg 72%
    10:00 +3°C° 0 mm 2 mps 639 mmHg 70%
    11:00 +5°C° 0 mm 2 mps 639 mmHg 68%
    12:00 +6°C° 0 mm 2 mps 640 mmHg 67%
    13:00 +5°C° 0 mm 2 mps 639 mmHg 66%
    14:00 +4°C° 0 mm 3 mps 639 mmHg 66%
    15:00 +4°C° 0 mm 3 mps 639 mmHg 66%
    16:00 +2°C° 0 mm 3 mps 639 mmHg 70%
    17:00 +2°C° 0 mm 2 mps 639 mmHg 75%
    18:00 -1°C° 0 mm 2 mps 638 mmHg 80%
    19:00 -1°C° 0 mm 2 mps 639 mmHg 79%
    20:00 -2°C° 0 mm 3 mps 639 mmHg 77%
    21:00 -2°C° 0 mm 3 mps 639 mmHg 75%
    22:00 -2°C° 0 mm 3 mps 639 mmHg 76%
    23:00 -2°C° 0 mm 2 mps 640 mmHg 77%

    Tomorrow, 20 January, Saturday

    Time Temperature Precipitation Wind Pressure Humidity
    00:00 -2°C° 0 mm 2 mps 640 mmHg 78%
    01:00 -2°C° 0 mm 2 mps 640 mmHg 79%
    02:00 -2°C° 0 mm 2 mps 639 mmHg 79%
    03:00 -2°C° 0 mm 2 mps 639 mmHg 80%
    04:00 -3°C° 0 mm 2 mps 639 mmHg 79%
    05:00 -3°C° 0 mm 2 mps 639 mmHg 77%
    06:00 -3°C° 0 mm 2 mps 639 mmHg 76%
    07:00 -2°C° 0 mm 2 mps 639 mmHg 72%
    08:00 +1°C° 0 mm 1 mps 639 mmHg 68%
    09:00 +3°C° 0 mm 1 mps 640 mmHg 65%
    10:00 +3°C° 0.1 mm 2 mps 639 mmHg 65%
    11:00 +4°C° 0.1 mm 2 mps 639 mmHg 66%
    12:00 +5°C° 0.1 mm 2 mps 639 mmHg 66%
    13:00 +4°C° 0.7 mm 3 mps 639 mmHg 70%
    14:00 +4°C° 0.7 mm 3 mps 638 mmHg 73%
    15:00 +4°C° 0.7 mm 4 mps 638 mmHg 77%
    16:00 +3°C° 0.3 mm 4 mps 638 mmHg 80%
    17:00 +3°C° 0.3 mm 4 mps 638 mmHg 84%
    18:00 +1°C° 0.3 mm 4 mps 638 mmHg 87%
    19:00 +1°C° 0.3 mm 4 mps 638 mmHg 87%
    20:00 +3°C° 0.3 mm 3 mps 638 mmHg 88%
    21:00 +3°C° 0.3 mm 3 mps 639 mmHg 88%
    22:00 +3°C° 0.5 mm 3 mps 639 mmHg 88%
    23:00 +3°C° 0.5 mm 3 mps 639 mmHg 89%

    Day after tomorrow, 21 January, Sunday

    Time Temperature Precipitation Wind Pressure Humidity
    00:00 +3°C° 0.5 mm 3 mps 640 mmHg 89%
    01:00 +3°C° 0.6 mm 3 mps 640 mmHg 90%
    02:00 +3°C° 0.6 mm 3 mps 640 mmHg 90%
    03:00 +3°C° 0.6 mm 3 mps 640 mmHg 90%
    04:00 +3°C° 0.6 mm 3 mps 640 mmHg 90%
    05:00 +3°C° 0.6 mm 3 mps 640 mmHg 90%
    06:00 +3°C° 0.6 mm 3 mps 641 mmHg 90%
    07:00 +3°C° 0.3 mm 3 mps 641 mmHg 89%
    08:00 +4°C° 0.3 mm 3 mps 642 mmHg 87%
    09:00 +4°C° 0.3 mm 3 mps 642 mmHg 86%
    10:00 +5°C° 0.1 mm 3 mps 642 mmHg 83%
    11:00 +7°C° 0.1 mm 3 mps 643 mmHg 79%
    12:00 +7°C° 0.1 mm 3 mps 643 mmHg 76%
    13:00 +7°C° 0 mm 3 mps 643 mmHg 77%
    14:00 +7°C° 0 mm 3 mps 643 mmHg 77%
    15:00 +7°C° 0 mm 3 mps 643 mmHg 77%
    16:00 +5°C° 0 mm 3 mps 643 mmHg 80%
    17:00 +4°C° 0 mm 3 mps 643 mmHg 83%
    18:00 +3°C° 0 mm 3 mps 643 mmHg 85%
    19:00 +3°C° 0 mm 3 mps 643 mmHg 85%
    20:00 +3°C° 0 mm 3 mps 643 mmHg 85%
    21:00 +3°C° 0 mm 2 mps 643 mmHg 85%
    22:00 +3°C° 0 mm 2 mps 643 mmHg 85%
    23:00 +2°C° 0 mm 3 mps 643 mmHg 84%

    22 January, Monday

    Time Temperature Precipitation Wind Pressure Humidity
    00:00 +1°C° 0 mm 3 mps 643 mmHg 83%
    01:00 +1°C° 0 mm 3 mps 643 mmHg 84%
    02:00 +1°C° 0 mm 3 mps 643 mmHg 84%
    03:00 +1°C° 0 mm 3 mps 643 mmHg 84%
    04:00 +1°C° 0 mm 3 mps 643 mmHg 84%
    05:00 +1°C° 0 mm 3 mps 642 mmHg 83%
    06:00 +2°C° 0 mm 2 mps 642 mmHg 83%
    07:00 +2°C° 0 mm 2 mps 643 mmHg 80%
    08:00 +3°C° 0 mm 2 mps 643 mmHg 76%
    09:00 +4°C° 0 mm 2 mps 644 mmHg 73%
    10:00 +6°C° 0 mm 2 mps 644 mmHg 70%
    11:00 +7°C° 0 mm 2 mps 645 mmHg 66%
    12:00 +9°C° 0 mm 2 mps 645 mmHg 63%
    13:00 +8°C° 0 mm 2 mps 645 mmHg 64%
    14:00 +8°C° 0 mm 2 mps 645 mmHg 65%
    15:00 +8°C° 0 mm 2 mps 644 mmHg 67%
    16:00 +6°C° 0 mm 2 mps 644 mmHg 72%
    17:00 +4°C° 0 mm 2 mps 644 mmHg 78%
    18:00 +3°C° 0 mm 2 mps 643 mmHg 84%
    19:00 +2°C° 0 mm 2 mps 643 mmHg 82%
    20:00 +2°C° 0 mm 2 mps 644 mmHg 79%
    21:00 +2°C° 0 mm 2 mps 644 mmHg 77%
    22:00 +2°C° 0 mm 2 mps 644 mmHg 75%
    23:00 +2°C° 0 mm 2 mps 644 mmHg 73%

    23 January, Tuesday

    Time Temperature Precipitation Wind Pressure Humidity
    00:00 +2°C° 0 mm 2 mps 644 mmHg 71%
    01:00 +2°C° 0 mm 2 mps 644 mmHg 73%
    02:00 +2°C° 0 mm 2 mps 644 mmHg 75%
    03:00 +2°C° 0 mm 2 mps 644 mmHg 77%
    04:00 +2°C° 0 mm 2 mps 644 mmHg 79%
    05:00 +2°C° 0 mm 2 mps 644 mmHg 81%
    06:00 +2°C° 0 mm 2 mps 644 mmHg 82%
    07:00 +3°C° 0 mm 2 mps 645 mmHg 81%
    08:00 +4°C° 0 mm 2 mps 645 mmHg 80%
    09:00 +5°C° 0 mm 2 mps 646 mmHg 79%
    10:00 +8°C° 0 mm 1 mps 646 mmHg 74%
    11:00 +9°C° 0 mm 1 mps 647 mmHg 70%
    12:00 +11°C° 0 mm 1 mps 647 mmHg 65%
    13:00 +10°C° 0 mm 1 mps 647 mmHg 67%
    14:00 +10°C° 0 mm 1 mps 646 mmHg 68%
    15:00 +10°C° 0 mm 1 mps 646 mmHg 70%
    16:00 +8°C° 0 mm 1 mps 646 mmHg 76%
    17:00 +6°C° 0 mm 1 mps 645 mmHg 81%
    18:00 +5°C° 0 mm 1 mps 645 mmHg 87%
    19:00 +5°C° 0 mm 1 mps 645 mmHg 86%
    20:00 +4°C° 0 mm 1 mps 645 mmHg 85%
    21:00 +4°C° 0 mm 1 mps 645 mmHg 85%
    22:00 +4°C° 0 mm 1 mps 644 mmHg 84%
    23:00 +4°C° 0 mm 1 mps 644 mmHg 83%

    24 January, Wednesday

    Time Temperature Precipitation Wind Pressure Humidity
    00:00 +4°C° 0 mm 1 mps 644 mmHg 82%
    01:00 +4°C° 0 mm 1 mps 644 mmHg 82%
    02:00 +4°C° 0 mm 1 mps 643 mmHg 81%
    03:00 +4°C° 0 mm 1 mps 643 mmHg 80%
    04:00 +3°C° 0 mm 1 mps 643 mmHg 79%
    05:00 +3°C° 0 mm 1 mps 643 mmHg 78%
    06:00 +3°C° 0 mm 1 mps 643 mmHg 76%
    07:00 +4°C° 0 mm 1 mps 643 mmHg 72%
    08:00 +5°C° 0 mm 1 mps 644 mmHg 67%
    09:00 +7°C° 0 mm 1 mps 644 mmHg 63%
    10:00 +8°C° 0 mm 1 mps 644 mmHg 59%
    11:00 +9°C° 0 mm 2 mps 645 mmHg 54%
    12:00 +10°C° 0 mm 2 mps 645 mmHg 50%
    13:00 +10°C° 0 mm 2 mps 644 mmHg 52%
    14:00 +10°C° 0 mm 2 mps 644 mmHg 53%
    15:00 +9°C° 0 mm 2 mps 644 mmHg 54%
    16:00 +7°C° 0 mm 2 mps 643 mmHg 59%
    17:00 +6°C° 0 mm 1 mps 642 mmHg 65%
    18:00 +4°C° 0 mm 1 mps 641 mmHg 70%
    19:00 +4°C° 0 mm 1 mps 641 mmHg 66%
    20:00 +3°C° 0 mm 1 mps 641 mmHg 63%
    21:00 +3°C° 0 mm 1 mps 641 mmHg 59%
    22:00 +2°C° 0 mm 2 mps 641 mmHg 57%
    23:00 +2°C° 0 mm 2 mps 640 mmHg 56%
    Show more